Date,TemperatureHighF,TemperatureAvgF,TemperatureLowF,DewpointHighF,DewpointAvgF,DewpointLowF,HumidityHigh,HumidityAvg,HumidityLow,PressureMaxIn,PressureMinIn,WindSpeedMaxMPH,WindSpeedAvgMPH,GustSpeedMaxMPH,PrecipitationSumIn
2013-1-13,81.7,78.4,75.3,68.8,67.5,66.4,75,69,64,30.12,30.09,9,2,0,0.00
2013-1-15,82.0,75.9,69.6,69.3,66.8,64.2,83,74,64,30.13,30.04,12,2,16,0.00
2013-1-16,82.2,76.8,65.0,70.4,68.7,63.2,94,77,62,30.09,30.01,14,2,14,0.00
2013-1-17,79.0,71.4,63.0,73.8,67.1,57.8,95,87,71,30.08,29.95,8,1,12,0.03
2013-1-18,71.4,64.7,55.8,60.3,54.7,49.0,81,70,62,30.22,30.09,13,2,16,0.00
2013-1-19,71.1,70.1,67.7,68.7,65.1,60.1,95,85,69,30.18,30.09,4,0,0,0.33
2013-1-20,80.4,72.4,64.9,70.4,67.2,63.7,97,85,68,30.13,30.01,7,1,0,0.01
2013-1-21,79.7,72.2,66.4,72.6,68.8,65.2,97,90,73,30.06,29.95,4,0,0,0.78
2013-1-24,75.1,67.7,58.7,54.7,50.7,44.0,84,56,40,30.28,30.22,6,1,12,0.00
2013-1-25,77.9,67.7,56.0,60.8,57.5,52.1,87,71,55,30.25,30.17,4,0,0,0.00
2013-1-26,80.8,67.3,58.7,58.7,56.4,52.9,90,71,45,30.23,30.18,4,0,0,0.00
2013-1-27,76.7,76.0,75.4,61.2,60.7,60.2,60,59,58,30.23,30.21,5,3,0,0.00
2013-1-28,80.8,77.2,72.4,68.1,66.3,64.4,80,70,61,30.31,30.23,12,4,17,0.00
2013-1-29,76.9,75.2,74.2,71.3,68.6,66.9,87,80,75,30.22,30.13,10,2,0,0.03
2013-1-30,78.5,75.7,71.5,68.3,66.1,64.4,79,72,66,30.09,29.96,10,3,19,0.00
2013-1-31,66.1,65.0,63.8,57.8,55.9,53.6,80,73,64,30.06,30.06,2,0,0,0.02
2013-2-1,71.7,65.7,55.5,56.5,53.0,41.0,71,64,56,30.23,30.16,14,4,18,0.00
2013-2-2,75.0,74.2,73.2,53.8,53.1,52.7,50,48,46,30.22,30.18,12,3,12,0.00
2013-2-3,76.0,68.1,55.9,53.6,48.1,39.2,85,52,28,30.16,30.06,10,2,0,0.00
2013-2-4,77.9,71.4,58.7,54.6,47.7,44.3,86,48,31,30.10,30.03,7,1,0,0.00
2013-2-5,80.2,77.4,74.6,62.6,60.8,58.0,65,57,50,30.07,29.99,10,3,12,0.00
2013-2-6,79.4,71.0,60.7,68.1,63.1,59.0,95,78,63,30.10,30.05,5,1,0,0.00
2013-2-7,81.6,77.0,72.4,68.9,66.4,64.7,78,70,58,29.99,29.94,9,2,12,0.00
2013-2-8,83.8,76.7,69.8,70.9,69.3,67.0,93,79,60,30.01,29.93,2,0,0,0.00
2013-2-9,79.4,72.6,66.3,66.3,65.1,63.9,93,79,64,30.13,30.01,9,2,14,0.00
2013-2-10,76.0,72.6,68.7,64.1,62.9,60.7,85,72,64,30.26,30.15,14,5,18,0.01
2013-2-11,78.8,74.9,71.6,65.8,65.3,64.5,81,73,63,30.21,30.12,5,1,14,0.00
2013-2-12,82.6,80.9,78.4,70.5,69.9,69.1,76,70,64,30.03,29.97,10,3,14,0.00
2013-2-13,88.1,80.9,72.4,74.6,71.4,68.5,96,74,54,30.00,29.88,7,2,13,0.01
2013-2-14,78.1,72.5,68.0,71.6,69.6,66.2,95,91,80,29.98,29.86,7,1,12,0.12
2013-2-15,68.0,66.2,65.1,66.5,64.5,63.6,95,95,94,29.97,29.93,0,0,0,0.37
2013-2-16,73.7,68.9,62.9,64.5,58.8,50.9,97,72,55,29.92,29.86,5,1,0,0.01
2013-2-17,56.9,51.6,44.4,43.8,32.8,25.4,68,50,32,30.25,30.07,6,2,14,0.00
2013-2-18,68.6,59.2,47.6,56.7,46.5,35.5,71,63,53,30.30,30.22,13,2,15,0.00
2013-2-19,75.9,75.2,74.2,61.5,61.1,60.8,63,62,61,30.18,30.17,7,4,13,0.00
2013-2-26,81.4,80.2,78.7,72.3,71.7,71.1,78,76,73,29.86,29.81,2,0,0,0.00
2013-2-27,76.9,70.4,65.7,73.9,66.4,63.9,94,88,72,29.94,29.86,0,0,0,0.58
2013-2-28,70.9,65.5,59.2,55.6,53.5,50.8,82,66,49,30.00,29.91,4,0,0,0.00
2013-3-1,64.3,61.4,58.6,51.7,50.2,48.2,73,67,61,29.98,29.95,10,0,0,0.00
2013-3-2,68.3,62.3,54.8,45.2,43.0,38.5,69,50,42,30.02,29.95,10,2,16,0.00
2013-3-3,61.6,61.6,61.6,41.7,41.7,41.7,48,48,48,29.99,29.99,0,0,0,0.00
2013-3-8,74.3,70.1,65.2,54.0,52.9,51.9,67,55,48,30.14,30.10,7,2,0,0.00
2013-3-9,74.9,64.5,55.0,57.6,53.8,50.4,85,70,53,30.18,30.10,6,1,13,0.00
2013-3-10,75.5,75.1,74.4,57.2,56.6,55.8,54,53,51,30.15,30.14,11,4,13,0.00
2013-3-11,79.5,74.7,69.1,62.9,60.7,58.8,72,62,50,30.02,29.96,14,4,14,0.00
2013-3-12,80.7,77.4,71.3,71.2,68.7,64.6,83,75,69,30.00,29.90,10,2,16,0.00
2013-3-13,74.9,74.2,73.3,55.2,53.7,52.7,52,49,46,30.06,30.04,12,4,18,0.00
2013-3-14,71.5,63.0,57.7,49.5,47.7,41.9,74,59,35,30.19,30.14,11,3,17,0.00
2013-3-15,73.6,73.3,72.7,53.0,51.6,50.1,50,47,44,30.18,30.16,7,3,0,0.00
2013-3-16,75.5,61.0,53.6,56.1,53.4,51.6,93,79,50,30.17,30.08,8,1,16,0.00
2013-3-17,74.8,72.3,70.1,62.2,60.9,59.5,75,68,61,30.08,30.04,5,1,0,0.00
2013-3-18,73.6,71.5,68.6,70.7,69.0,66.5,93,92,90,30.01,29.97,2,0,0,0.44
2013-3-19,77.3,74.2,71.3,70.1,68.6,66.6,95,83,75,29.94,29.83,9,1,15,0.00
2013-3-30,76.2,75.4,74.8,54.7,53.4,51.2,49,46,43,30.23,30.18,10,5,12,0.00
2013-3-31,78.2,77.4,76.9,65.4,64.5,64.0,66,65,64,30.16,30.14,8,4,14,0.00
2013-4-2,86.3,82.1,78.9,67.2,65.9,64.6,66,58,50,30.07,30.05,9,2,0,0.00
2013-4-3,82.6,79.5,74.4,70.5,69.5,67.8,81,72,65,30.06,29.98,11,4,14,0.00
2013-4-4,82.4,73.9,68.8,72.7,69.6,67.0,95,87,71,30.00,29.90,10,1,15,0.96
2013-4-5,71.9,69.4,67.5,68.0,67.0,65.7,94,92,87,29.91,29.85,7,0,0,0.37
2013-4-6,75.6,75.0,74.3,66.4,65.6,65.1,74,73,71,30.03,30.01,7,2,14,0.01
2013-4-7,78.0,77.1,76.3,64.9,64.3,63.8,67,65,63,30.13,30.09,7,2,14,0.00
2013-4-8,81.7,79.7,75.2,65.8,63.9,62.4,71,59,53,30.12,30.06,9,2,13,0.00
2013-4-9,80.9,77.0,74.3,70.5,67.8,66.3,81,73,66,30.15,30.08,11,3,14,0.04
2013-4-10,83.0,77.9,74.0,73.8,71.6,68.5,85,81,73,30.08,29.99,10,3,15,0.00
2013-4-15,90.8,84.1,71.0,77.2,74.0,68.6,92,73,60,30.02,29.94,11,4,20,1.16
2013-4-16,84.5,79.1,71.4,75.3,73.2,70.2,97,83,72,30.07,30.02,12,4,15,0.01
2013-4-17,85.2,79.9,73.6,69.4,68.2,67.0,86,68,56,30.07,30.01,6,2,0,0.00
2013-4-18,85.3,81.0,76.0,74.4,72.5,68.3,82,76,69,30.06,29.98,12,3,14,0.00
2013-4-19,87.0,85.7,83.4,73.3,72.1,70.8,71,64,60,29.99,29.96,12,6,15,0.13
2013-4-20,90.1,82.8,73.0,77.8,74.8,70.9,95,78,61,30.05,29.96,13,2,21,0.35
2013-4-21,84.3,81.7,79.1,75.4,73.1,71.7,80,76,70,30.08,29.98,12,3,14,0.01
2013-4-22,73.7,73.0,72.6,70.4,70.0,69.6,91,90,89,30.02,30.00,8,2,13,0.00
2013-4-25,84.2,80.3,75.8,64.3,63.0,61.8,64,56,47,30.17,30.13,10,3,0,0.00
2013-4-26,83.4,82.6,82.1,67.2,66.5,65.7,60,58,56,30.20,30.18,11,5,15,0.00
2013-4-27,82.3,79.6,76.6,68.3,66.1,63.7,75,64,54,30.17,30.08,8,3,15,0.00
2013-4-28,81.6,78.0,74.3,65.6,64.4,63.6,73,63,56,30.10,29.99,8,3,18,0.00
2013-4-29,82.9,79.6,78.0,71.7,69.9,66.8,79,73,63,30.03,29.93,12,3,16,0.00
2013-4-30,85.6,79.9,71.9,73.6,71.3,67.6,92,76,61,30.01,29.94,13,1,19,2.67
2013-5-1,85.8,80.6,71.7,73.9,72.1,69.3,93,76,66,29.99,29.92,7,1,13,0.44
2013-5-2,74.0,71.4,69.2,70.4,69.3,67.5,96,93,85,29.90,29.80,13,3,17,2.63
2013-5-3,89.5,75.9,69.1,74.3,70.7,67.7,97,85,55,29.82,29.71,10,0,12,0.81
2013-5-5,86.5,77.8,66.8,68.2,60.2,53.7,95,58,41,29.92,29.78,3,0,0,0.00
2013-5-6,78.5,68.2,59.5,64.2,58.7,54.7,89,73,57,29.95,29.91,10,0,0,0.00
2013-5-7,86.2,74.2,62.0,67.0,60.9,56.4,84,66,42,30.02,29.96,5,0,0,0.00
2013-5-8,82.8,75.4,65.9,65.4,63.0,59.8,81,66,54,30.13,30.04,4,1,0,0.00
2013-5-9,79.0,73.3,68.2,73.6,67.7,62.1,88,83,79,30.11,30.07,2,0,0,0.00
2013-5-10,85.2,80.6,74.6,74.6,73.3,70.8,90,79,66,30.08,30.01,10,2,15,0.00
2013-5-11,87.1,79.3,74.4,77.6,74.3,72.2,93,85,67,30.06,30.00,9,2,15,0.33
2013-5-12,72.5,71.8,71.1,71.0,70.4,69.7,96,95,95,30.03,29.95,0,0,0,1.64
2013-5-13,90.8,83.2,70.9,74.4,71.5,67.9,97,70,49,30.08,29.99,5,1,0,0.01
2013-5-14,81.7,77.9,74.0,66.7,60.8,56.9,76,56,47,30.17,30.06,11,3,16,0.00
2013-5-15,82.8,78.3,72.6,66.6,62.8,57.9,68,60,49,30.19,30.09,13,3,15,0.00
2013-5-16,84.1,76.6,67.7,66.9,63.1,59.5,82,64,49,30.11,30.03,9,2,13,0.00
2013-5-17,86.3,77.5,70.5,74.1,70.3,63.4,90,79,63,30.09,30.00,11,1,13,0.03
2013-5-18,86.1,78.8,72.6,75.8,72.3,69.7,95,81,66,30.10,30.03,12,2,14,0.02
2013-5-19,87.2,80.2,73.5,72.2,70.5,68.2,87,73,59,30.10,30.00,10,2,13,0.00
2013-5-20,80.4,75.6,68.7,75.9,72.3,66.7,96,90,79,30.08,29.97,8,0,15,6.90
2013-5-21,83.6,75.7,69.0,75.2,71.6,67.2,96,88,68,30.05,29.93,12,2,19,0.19
2013-5-22,86.8,78.2,73.4,75.9,72.8,69.4,95,84,62,29.97,29.89,11,1,14,0.36
2013-5-23,96.0,82.7,73.9,76.6,74.0,65.5,95,77,38,30.00,29.90,8,1,0,0.00
2013-5-24,92.6,83.7,76.3,77.4,73.9,66.7,94,74,49,30.05,29.94,9,1,13,0.00
2013-5-25,86.2,80.4,73.5,75.3,69.5,65.3,94,71,52,30.16,30.03,14,2,17,0.16
2013-5-26,85.4,79.4,72.4,69.2,66.0,60.3,78,64,55,30.17,30.10,12,2,16,0.00
2013-5-27,85.3,79.7,75.7,73.5,70.3,63.8,85,73,64,30.15,30.06,13,3,16,0.02
2013-5-28,83.8,79.1,75.7,75.3,73.3,71.7,92,83,72,30.11,30.04,16,4,20,0.13
2013-5-29,82.2,76.5,71.5,75.7,72.6,68.9,96,88,67,30.09,30.01,13,2,22,4.00
2013-5-30,81.6,78.0,73.8,75.7,72.7,68.7,94,84,75,30.08,30.00,20,4,28,0.75
2013-5-31,84.4,79.0,75.5,76.5,74.3,71.6,95,86,74,30.06,30.00,14,4,16,0.92
2013-6-1,84.6,78.2,74.2,77.6,75.2,73.0,96,91,78,30.03,29.95,10,1,12,1.07
2013-6-2,90.9,80.3,72.6,79.3,74.8,71.7,98,85,64,30.00,29.91,11,1,14,0.00
2013-6-7,79.9,76.9,75.3,75.7,74.3,73.7,95,92,84,29.98,29.93,4,0,0,0.66
2013-6-8,85.9,82.8,78.9,79.3,77.7,75.0,90,85,77,30.10,30.01,7,0,0,1.86
2013-6-9,86.3,82.4,78.2,76.6,75.9,74.9,90,81,71,30.11,30.03,11,3,13,0.00
2013-6-10,88.4,85.4,82.0,78.1,77.0,76.0,85,76,70,30.08,30.01,10,3,13,0.00
2013-6-11,89.8,85.5,81.6,79.6,77.0,74.4,87,76,65,30.06,30.00,8,2,0,0.00
2013-6-12,81.8,81.6,81.4,77.3,76.6,76.2,87,85,84,30.04,30.02,0,0,0,0.00
2013-6-13,90.4,84.4,79.2,80.2,78.9,77.3,96,84,66,30.04,30.03,4,0,0,0.00
2013-6-14,94.2,85.2,78.9,77.7,74.4,71.8,79,71,56,29.95,29.91,4,1,0,0.00
2013-6-23,87.4,84.5,82.9,75.5,74.8,73.3,76,73,66,30.09,30.06,10,3,13,0.01
2013-6-24,88.4,86.7,84.1,76.3,75.1,73.5,76,69,65,30.16,30.07,11,4,15,0.00
2013-6-25,87.7,85.9,84.8,76.4,76.1,75.4,76,73,69,30.05,30.04,6,4,14,0.06
2013-6-26,86.4,85.4,84.9,76.8,76.5,75.9,76,75,71,30.05,30.03,7,4,13,0.11
2013-6-27,89.4,82.5,74.6,80.5,76.0,70.3,94,81,63,30.06,29.95,6,1,20,0.87
2013-6-28,94.9,90.4,85.4,78.0,76.0,73.6,78,63,53,29.97,29.85,11,2,14,0.00
2013-6-29,88.5,86.9,84.3,79.0,77.9,76.9,81,75,70,29.89,29.87,0,0,0,0.00
2013-6-30,91.3,87.5,82.8,79.2,77.6,75.9,87,73,61,29.90,29.88,5,1,0,0.01
2013-7-1,86.6,85.7,84.1,78.1,77.4,76.1,78,76,74,29.99,29.94,12,4,13,0.01
2013-7-2,88.8,86.6,85.2,79.7,78.8,78.0,81,78,74,30.06,30.04,13,3,15,0.01
2013-7-3,87.8,85.9,83.6,79.9,78.2,76.9,86,78,74,30.11,30.08,12,4,18,0.23
2013-7-4,84.8,83.6,83.0,77.5,76.6,76.2,80,80,79,30.12,30.09,8,4,0,0.06
2013-7-5,86.6,85.7,85.4,77.7,76.8,75.5,77,75,72,30.06,30.05,10,5,15,1.11
2013-7-9,83.7,83.0,82.4,74.7,74.4,74.1,77,76,73,30.05,30.04,4,2,0,0.13
2013-7-10,85.2,84.1,83.2,76.5,75.9,75.4,79,76,73,30.05,30.03,4,1,0,0.53
2013-7-11,88.4,84.1,80.1,77.7,74.4,72.1,79,73,68,29.98,29.94,9,1,0,0.00
2013-7-12,92.3,83.8,73.6,79.5,75.7,70.4,93,78,61,29.97,29.89,5,0,0,2.12
2013-7-13,88.2,81.6,76.4,81.0,78.1,75.5,97,90,75,29.98,29.96,9,1,0,0.27
2013-7-20,87.7,84.6,77.4,79.3,77.3,73.2,88,79,72,30.10,30.03,4,1,12,0.01
2013-7-21,87.5,84.9,83.6,79.2,78.3,77.2,85,81,73,30.09,30.03,5,1,0,0.01
2013-7-23,98.3,91.6,85.6,78.4,76.7,72.5,73,63,45,30.07,29.97,7,2,0,0.00
2013-7-24,98.4,90.2,79.4,78.1,73.6,69.5,93,60,45,29.98,29.91,3,0,0,0.00
2013-7-30,87.8,85.3,83.3,79.5,78.9,77.9,85,81,74,30.15,30.14,4,0,0,0.00
2013-7-31,89.1,86.9,84.9,79.0,77.8,76.0,77,74,69,30.11,30.01,11,3,12,0.01
2013-8-1,91.0,90.2,89.6,75.9,75.2,73.9,63,62,60,30.01,30.00,10,4,12,0.00
2013-8-2,90.8,80.4,75.5,77.4,75.0,73.3,93,85,60,30.05,29.98,6,1,12,0.19
2013-8-3,75.6,75.5,75.3,74.1,74.0,73.8,95,95,95,30.09,30.08,0,0,0,0.87
2013-8-4,94.5,82.3,75.4,81.0,75.8,72.9,93,82,61,30.08,30.01,2,0,0,0.12
2013-8-5,96.7,87.2,82.2,82.1,52.2,-99.9,87,75,55,30.03,29.94,6,1,0,0.16
2013-8-6,82.2,82.2,82.2,-99.9,-99.9,-99.9,83,83,83,29.97,29.89,10,2,0,0.00
2013-8-7,82.2,82.2,82.2,-99.9,-99.9,-99.9,83,83,83,29.98,29.92,7,2,12,0.00
2013-8-8,82.2,82.2,82.2,-99.9,-99.9,-99.9,83,83,83,29.98,29.95,10,3,12,0.00
2013-8-10,82.2,82.2,82.2,-99.9,-99.9,-99.9,83,83,83,30.08,30.07,2,0,0,0.00
2013-8-11,82.2,82.2,82.2,-99.9,-99.9,-99.9,83,83,83,30.08,30.07,4,1,0,0.00
2013-8-12,82.2,82.2,82.2,-99.9,-99.9,-99.9,83,83,83,30.05,30.01,10,3,0,0.00
2013-8-13,82.2,82.2,82.2,-99.9,-99.9,-99.9,83,83,83,30.03,29.95,11,3,13,0.00
2013-8-14,82.2,82.2,82.2,-99.9,-99.9,-99.9,83,83,83,29.99,29.94,7,2,0,0.00
2013-8-15,82.2,82.2,82.2,-99.9,-99.9,-99.9,83,83,83,30.02,29.96,3,0,0,0.24
2013-8-16,82.2,82.2,82.2,-99.9,-99.9,-99.9,83,83,83,30.04,29.98,7,3,0,0.02
2013-8-18,82.2,82.2,82.2,-99.9,-99.9,-99.9,83,83,83,30.08,29.99,13,5,17,0.05
2013-8-19,82.2,82.2,82.2,-99.9,-99.9,-99.9,83,83,83,30.03,29.96,13,3,14,0.00
2013-8-20,82.2,82.2,82.2,-99.9,-99.9,-99.9,83,83,83,30.06,29.99,13,4,16,0.07
2013-8-21,82.2,82.2,82.2,-99.9,-99.9,-99.9,83,83,83,30.04,30.00,13,5,15,0.11
2013-8-22,82.2,82.2,82.2,-99.9,-99.9,-99.9,83,83,83,30.04,29.97,12,3,14,0.01
2013-8-23,82.2,82.2,82.2,-99.9,-99.9,-99.9,83,83,83,29.99,29.94,2,0,0,0.00
2013-8-24,41.3,41.3,41.3,-99.9,-99.9,-99.9,38,38,38,30.06,30.02,10,4,0,0.02
2013-8-26,41.3,41.3,41.3,-99.9,-99.9,-99.9,38,38,38,30.08,30.06,4,1,0,0.00
2013-8-27,41.3,41.3,41.3,-99.9,-99.9,-99.9,38,38,38,30.01,29.98,0,0,0,0.00
2013-8-28,41.3,41.3,41.3,-99.9,-99.9,-99.9,38,38,38,30.03,29.95,6,2,0,0.11
2013-8-29,41.3,41.3,41.3,-99.9,-99.9,-99.9,38,38,38,29.98,29.96,9,4,0,0.01
2013-9-8,41.3,41.3,41.3,-99.9,-99.9,-99.9,38,38,38,29.93,29.91,0,0,0,0.00
2013-9-9,41.3,41.3,41.3,-99.9,-99.9,-99.9,38,38,38,29.99,29.98,7,1,0,0.02
2013-9-10,41.3,41.3,41.3,-99.9,-99.9,-99.9,38,38,38,30.01,29.98,11,4,0,0.22
2013-9-14,41.3,41.3,41.3,-99.9,-99.9,-99.9,38,38,38,29.91,29.89,6,3,0,0.00
2013-9-17,41.3,41.3,41.3,-99.9,-99.9,-99.9,38,38,38,29.98,29.97,7,1,0,2.81
2013-9-18,41.3,41.3,41.3,-99.9,-99.9,-99.9,38,38,38,29.98,29.95,5,2,0,0.50
2013-9-19,41.3,41.3,41.3,-99.9,-99.9,-99.9,38,38,38,29.99,29.94,7,1,0,0.01
2013-9-21,41.3,41.3,41.3,-99.9,-99.9,-99.9,38,38,38,29.87,29.84,4,2,0,0.00
2013-9-23,41.3,41.3,41.3,-99.9,-99.9,-99.9,38,38,38,29.92,29.91,0,0,0,0.63
2013-9-25,41.3,41.3,41.3,-99.9,-99.9,-99.9,38,38,38,29.80,29.78,1,0,0,0.10
2013-9-29,41.3,41.3,41.3,-99.9,-99.9,-99.9,38,38,38,29.96,29.88,6,2,0,0.00
2013-9-30,41.3,41.3,41.3,-99.9,-99.9,-99.9,38,38,38,30.00,29.91,5,2,0,0.00
2013-10-1,41.3,41.3,41.3,-99.9,-99.9,-99.9,38,38,38,30.02,29.95,7,2,0,0.00
2013-10-2,41.3,41.3,41.3,-99.9,-99.9,-99.9,38,38,38,30.01,29.97,2,1,0,0.00
2013-10-3,41.3,41.3,41.3,-99.9,-99.9,-99.9,38,38,38,30.03,29.98,8,1,0,0.12
2013-10-4,41.3,41.3,41.3,-99.9,-99.9,-99.9,38,38,38,30.04,29.98,4,1,0,0.00
2013-10-5,41.3,41.3,41.3,-99.9,-99.9,-99.9,38,38,38,30.01,29.93,7,1,0,0.00
2013-10-6,41.3,41.3,41.3,-99.9,-99.9,-99.9,38,38,38,29.95,29.89,0,0,0,0.00
2013-10-9,41.3,41.3,41.3,-99.9,-99.9,-99.9,38,38,38,29.94,29.93,4,1,12,0.00
2013-10-10,41.3,41.3,41.3,-99.9,-99.9,-99.9,38,38,38,30.00,29.95,0,0,0,0.00
2013-10-13,41.3,41.3,41.3,-99.9,-99.9,-99.9,38,38,38,29.99,29.98,4,1,0,0.00
2013-10-14,41.3,41.3,41.3,-99.9,-99.9,-99.9,38,38,38,29.98,29.90,6,3,12,0.00
2013-10-16,41.3,41.3,41.3,-99.9,-99.9,-99.9,38,38,38,29.92,29.88,4,2,0,0.00
2013-10-17,41.3,41.3,41.3,-99.9,-99.9,-99.9,38,38,38,29.92,29.91,0,0,0,0.00
2013-10-19,41.3,41.3,41.3,-99.9,-99.9,-99.9,38,38,38,29.96,29.90,5,1,0,0.00
2013-10-20,41.3,41.3,41.3,-99.9,-99.9,-99.9,38,38,38,29.94,29.88,6,1,0,0.00
2013-11-4,41.3,41.3,41.3,-99.9,-99.9,-99.9,38,38,38,30.05,30.02,8,4,16,0.00
2013-11-5,41.3,41.3,41.3,-99.9,-99.9,-99.9,38,38,38,30.02,30.01,0,0,15,0.00
2013-11-6,41.3,41.3,41.3,-99.9,-99.9,-99.9,38,38,38,30.00,30.00,3,3,0,0.00
2013-11-11,41.3,41.3,41.3,-99.9,-99.9,-99.9,38,38,38,30.06,30.05,5,1,0,0.00
2013-11-12,41.3,41.3,41.3,-99.9,-99.9,-99.9,38,38,38,30.04,29.98,5,2,0,0.00
2013-11-13,72.6,71.8,70.8,61.8,61.6,61.2,73,70,69,30.11,30.08,11,6,13,0.07
2013-11-14,74.6,73.3,72.1,58.8,57.2,56.3,63,57,53,30.16,30.14,11,2,0,0.00
2013-11-15,76.4,76.4,76.3,66.3,66.3,66.2,71,71,71,30.05,30.03,2,1,0,0.00
2013-11-19,86.5,82.6,78.4,72.8,72.1,70.9,80,71,60,29.92,29.85,5,1,0,0.02
2013-11-20,77.6,77.5,77.4,71.5,71.4,71.3,82,82,81,29.99,29.99,0,0,0,0.00
2013-11-21,76.7,75.8,73.6,72.2,71.0,70.1,94,85,80,30.13,30.04,5,2,12,0.73
2013-11-22,76.0,75.9,75.8,67.9,67.8,67.7,76,76,76,30.08,30.07,0,0,0,0.00
2013-11-23,81.9,81.0,80.4,70.7,69.7,68.8,69,69,68,30.01,29.98,4,2,0,0.00
2013-11-24,80.0,76.0,70.0,68.7,67.2,65.8,93,75,63,30.08,30.02,11,3,16,0.31
2013-11-25,72.8,71.9,70.0,66.3,65.4,64.6,83,80,77,30.17,30.10,10,3,0,0.01
2013-11-26,80.8,80.7,80.5,73.4,73.2,72.9,79,78,77,29.89,29.86,6,2,0,0.07
2013-11-27,65.8,64.9,64.1,58.0,57.0,56.0,76,76,75,30.03,30.01,1,0,0,0.00
2013-11-28,72.9,70.4,68.9,56.5,54.4,52.3,61,57,50,30.24,30.15,1,0,12,0.00
2013-11-29,76.8,69.5,57.1,61.2,57.9,54.4,92,68,51,30.25,30.18,4,0,14,0.00
2013-11-30,76.5,69.6,60.1,67.7,61.9,58.0,95,77,60,30.20,30.10,9,1,15,0.30
2013-12-1,79.1,68.2,62.4,68.9,65.3,60.1,97,91,70,30.10,29.94,6,0,0,2.02
2013-12-2,71.3,66.3,60.1,66.8,63.6,59.0,98,92,71,29.93,29.82,0,0,0,0.01
2013-12-3,78.9,68.7,58.8,64.4,62.0,57.7,98,81,54,29.99,29.89,2,0,0,0.01
2013-12-4,82.3,71.5,63.5,68.8,64.9,62.0,98,81,58,30.08,29.98,0,0,0,0.00
2013-12-5,82.4,76.1,64.3,70.8,68.5,62.9,98,78,65,30.16,30.07,10,1,13,0.00
2013-12-6,82.6,76.2,68.5,70.0,68.0,64.8,88,76,62,30.18,30.08,12,1,12,0.00
2013-12-7,82.3,72.4,65.3,72.9,67.9,63.5,97,86,68,30.22,30.13,11,1,0,0.04
2013-12-8,83.7,77.3,74.0,71.0,68.4,65.3,84,74,61,30.20,30.12,11,2,14,0.00
2013-12-9,84.0,77.1,70.6,69.9,67.6,63.3,90,73,51,30.19,30.09,12,2,16,0.00
2013-12-10,83.0,76.3,70.6,72.1,69.8,68.0,93,81,65,30.16,30.07,6,0,0,0.00
2013-12-11,84.8,74.4,67.7,73.3,68.7,66.2,98,84,55,30.20,30.11,9,0,0,0.01
2013-12-12,78.0,70.9,67.6,70.4,64.8,58.3,97,82,65,30.22,30.13,16,1,16,0.01
2013-12-13,77.9,72.5,69.0,66.7,61.6,56.1,80,69,61,30.20,30.09,12,2,12,0.00
2013-12-14,81.4,76.5,73.1,71.6,69.8,66.7,91,80,70,30.11,29.99,16,1,16,0.05
2013-12-15,81.9,75.1,69.9,74.8,70.9,65.7,96,87,74,30.06,29.92,7,0,0,0.01
2013-12-16,73.5,66.7,59.8,65.7,60.2,57.1,91,80,66,30.15,30.02,10,0,0,0.00
2013-12-17,77.7,65.5,57.1,63.2,57.6,55.1,95,78,53,30.18,30.09,8,0,0,0.00
2013-12-18,74.4,64.6,58.0,58.2,56.3,54.2,95,76,51,30.23,30.13,13,0,13,0.01
2013-12-19,77.0,67.7,55.3,63.5,58.3,53.4,96,73,54,30.24,30.15,13,1,13,0.00
2013-12-20,81.0,75.7,71.4,68.4,65.8,60.8,77,72,63,30.19,30.10,13,2,13,0.00
2013-12-21,79.6,76.1,75.5,71.5,69.3,67.6,84,80,76,30.14,30.08,12,2,12,0.00
2013-12-22,82.4,79.0,76.0,71.4,70.5,69.7,82,76,67,30.15,30.11,12,2,12,0.00
2013-12-23,79.7,74.6,70.4,71.1,69.6,67.6,92,85,74,30.16,30.10,5,0,0,0.00
2013-12-24,85.6,70.9,66.0,73.0,66.2,60.3,98,85,60,30.17,30.08,15,1,20,0.24
2013-12-25,76.9,71.9,69.6,66.3,64.2,61.6,88,77,67,30.17,30.09,15,1,15,0.03
2013-12-26,78.3,74.4,71.9,69.4,67.8,65.4,84,80,73,30.16,30.06,11,1,0,0.00
2013-12-27,81.0,75.7,72.0,70.5,68.5,67.1,90,79,68,30.19,30.08,11,1,14,0.02
2013-12-28,78.8,75.8,73.5,71.4,69.2,66.7,93,80,74,30.17,30.02,14,2,19,0.09
2013-12-29,81.4,76.6,72.9,73.8,72.1,71.1,95,86,75,30.02,29.92,12,1,19,0.01
2013-12-30,78.1,71.8,67.9,71.9,68.6,63.6,97,90,74,30.14,29.97,5,0,0,0.07
2013-12-31,78.2,71.8,66.6,65.9,63.2,61.3,87,75,61,30.22,30.10,14,1,18,0.00
2014-1-1,81.0,75.7,72.5,72.6,69.0,63.0,89,80,71,30.19,30.03,14,1,16,0.00
2014-1-2,85.5,76.1,67.8,71.8,68.0,65.2,95,78,52,30.04,29.85,13,0,14,0.00